This is the latest recevied weather packets stored in our database for station/object NEWPRT. If no packets are shown the sender has not sent any weather packets the latest 10 day(s).
| Time | Temp. | Humidity | Pressure | Rain* | Wind** | Luminosity | Snow |
|---|---|---|---|---|---|---|---|
| 1777727073 | - | 72% | 1016.6 hPa | 0 mm | - | - | - |
| 1777726750 | - | 69% | 1016.4 hPa | 0 mm | - | - | - |
| 1777726427 | - | 70% | 1016.5 hPa | 0 mm | - | - | - |
| 1777726104 | - | 69% | 1016.5 hPa | 0 mm | - | - | - |
| 1777725781 | - | 70% | 1016.7 hPa | 0 mm | - | - | - |
| 1777725459 | - | 68% | 1016.8 hPa | 0 mm | - | - | - |
| 1777725135 | - | 69% | 1016.7 hPa | 0 mm | - | - | - |
| 1777724812 | - | 70% | 1016.7 hPa | 0 mm | - | - | - |
| 1777724489 | - | 68% | 1016.8 hPa | 0 mm | - | - | - |
| 1777724166 | - | 69% | 1016.8 hPa | 0 mm | - | - | - |
| 1777723843 | - | 68% | 1016.7 hPa | 0 mm | - | - | - |
| 1777723520 | - | 68% | 1016.7 hPa | 0 mm | - | - | - |
| 1777723198 | - | 67% | 1016.6 hPa | 0 mm | - | - | - |
| 1777722875 | - | 70% | 1016.7 hPa | 0 mm | - | - | - |
| 1777722553 | - | 70% | 1016.7 hPa | 0 mm | - | - | - |
| 1777722228 | - | 68% | 1016.7 hPa | 0 mm | - | - | - |
| 1777721905 | - | 71% | 1016.7 hPa | 0 mm | - | - | - |
| 1777721582 | - | 68% | 1016.8 hPa | 0 mm | - | - | - |
| 1777721259 | - | 70% | 1016.6 hPa | 0 mm | - | - | - |
| 1777720936 | - | 69% | 1016.7 hPa | 0 mm | - | - | - |
| 1777720613 | - | 67% | 1016.8 hPa | 0 mm | - | - | - |
| 1777720290 | - | 68% | 1016.7 hPa | 0 mm | - | - | - |
| 1777719967 | - | 68% | 1016.6 hPa | 0 mm | - | - | - |
| 1777719644 | - | 69% | 1016.7 hPa | 0 mm | - | - | - |
| 1777719322 | - | 70% | 1016.9 hPa | 0 mm | - | - | - |
* Rain latest hour (hover to see other rain measurements)
** Current wind speed in m/s (hover to see current wind gust speed)